Temperature
18 18 18 18 18 18 18 18 18 18 18 18 18 18 18 18 18 18 18 18 17 17 17 17 17 17 17 17 17 17 16 16 16 16 16 16 16 16 16 16 16 16 16
18 18 18 18 18 18 18 18 18 18 18 18 18 18 18 18 18 18 18 17 17 17 17 17 17 17 17 17 17 16 16 16 16 16 16 16 16 16 16 16 16 16 16
18 19 19 18 18 18 18 18 18 18 18 18 18 18 18 18 18 18 18 17 17 17 17 17 17 17 17 17 17 16 16 16 16 16 16 16 16 16 16 16 16 16 16
19 19 19 19 18 18 18 18 18 18 18 18 18 18 18 18 18 18 18 17 17 17 17 17 17 17 17 16 16 16 16 16 16 16 16 16 16 16 16 16 15 15 15
19 19 19 19 18 18 18 18 18 18 18 18 18 18 18 18 18 18 18 17 17 17 17 17 17 17 17 16 16 16 16 16 16 16 16 16 16 15 15 15 15 15 15
19 19 19 19 19 18 18 18 18 18 18 18 18 18 18 18 17 17 17 17 17 17 17 17 17 16 16 16 16 16 16 16 16 16 16 16 16 15 15 15 15 15 15
19 19 19 19 18 18 18 18 18 18 18 18 18 18 18 17 17 17 17 17 17 17 17 17 17 16 16 16 16 16 16 16 16 16 16 15 15 15 15 15 15 15 15
19 19 19 19 19 19 19 18 18 18 18 18 18 18 18 17 17 17 17 17 17 17 17 17 16 16 16 16 16 16 16 16 16 16 15 15 15 15 15 15 15 15 15
19 19 19 19 19 19 19 19 18 18 18 18 18 18 18 17 17 17 17 17 17 17 17 17 16 16 16 16 16 16 16 16 16 16 15 15 15 15 15 15 15 15 15
19 19 19 19 19 19 19 19 18 18 18 18 18 18 18 18 17 17 17 17 17 17 17 16 16 16 16 16 16 16 16 16 16 15 15 15 15 15 15 15 15 14 14
19 19 19 19 19 19 19 19 19 18 18 18 18 18 18 18 17 17 17 17 17 17 16 16 16 16 16 16 16 16 16 15 15 15 15 15 15 15 15 14 14 14 14
19 19 19 19 19 19 19 19 19 18 18 18 18 18 18 18 17 17 17 17 17 17 16 16 16 16 16 16 16 15 15 15 15 15 15 15 15 15 15 14 14 14 14
19 19 19 19 19 19 19 19 19 18 18 18 18 18 18 18 17 17 17 17 16 16 16 16 16 16 16 16 15 15 15 15 15 15 15 15 15 15 15 14 14 14 14
19 19 19 19 19 19 19 18 19 18 18 18 18 18 18 17 17 17 17 17 16 16 16 16 16 16 16 16 16 15 15 15 15 15 15 15 15 15 14 14 14 14 14
19 19 19 19 19 19 19 19 18 18 18 18 18 18 18 17 17 17 17 17 17 16 16 16 16 16 16 16 15 15 15 15 15 15 15 15 15 15 14 14 14 14 14
19 19 19 19 19 19 19 18 18 18 18 18 18 18 18 17 17 17 17 17 16 16 16 16 16 16 16 16 15 15 15 15 15 15 15 15 15 14 14 14 14 14 13
19 19 19 19 18 18 18 18 18 18 18 18 18 18 18 17 17 17 17 17 16 16 16 16 16 16 16 15 15 15 15 15 15 15 14 14 14 14 14 14 14 14 13
19 18 18 19 18 18 18 18 18 18 18 18 17 17 17 17 17 17 17 17 16 16 16 16 16 16 15 15 15 15 15 15 15 15 14 14 14 14 14 14 14 14 13
18 18 18 18 18 18 18 18 18 18 18 17 17 17 17 17 17 17 17 17 16 16 16 16 16 16 15 15 15 15 15 15 15 15 14 14 14 14 14 14 14 13 13
18 18 18 18 18 18 18 18 18 18 17 17 17 17 17 17 17 17 17 17 16 16 16 16 16 16 15 15 15 15 15 15 15 14 14 14 14 14 14 14 13 13 13
18 18 18 18 18 18 18 18 18 18 17 17 17 17 17 17 17 16 16 16 16 16 16 16 16 15 15 15 15 15 15 15 15 14 14 14 14 14 14 13 13 13 13
18 18 18 18 18 18 18 18 18 18 17 17 17 17 17 17 17 16 16 16 16 16 16 16 16 15 15 15 15 15 14 14 14 14 14 14 14 14 13 13 13 13 13
18 18 18 18 18 18 18 18 18 17 17 17 17 17 17 17 16 16 16 16 16 16 16 16 15 15 15 15 15 14 14 14 14 14 14 14 14 14 13 13 13 13 13
18 18 18 18 18 18 18 18 17 17 17 17 17 16 16 16 16 16 16 16 16 16 16 16 15 15 15 15 14 14 14 14 14 14 13 13 14 13 13 13 13 13 13
18 18 18 18 18 18 18 17 17 17 17 17 16 16 16 16 16 16 16 16 16 16 16 15 15 15 15 15 14 14 14 14 14 14 13 13 13 13 13 13 13 13 13
18 18 18 18 17 18 17 17 17 17 16 16 16 16 16 16 16 16 15 15 15 15 15 15 15 15 15 14 14 14 14 13 13 13 13 13 13 13 12 13 13 13 13
Wind_Speed
3 3 3 3 4 4 3 3 2 1 1 1 2 2 2 3 4 5 6 9 10 10 10 10 10 10 10 10 10 10 10 10 10 11 11 12 12 12 12 12 13 13 12
4 3 2 2 3 4 4 3 2 1 1 0 0 1 2 3 4 5 5 6 8 9 9 8 8 8 9 9 9 9 9 9 10 10 11 12 12 12 12 12 13 13 13
5 4 2 1 2 2 2 2 1 1 0 0 0 1 1 2 4 5 5 5 5 6 7 6 6 7 7 7 8 8 8 8 9 9 11 12 12 12 12 12 12 12 11
5 3 2 1 1 2 2 1 1 1 0 1 1 1 1 2 3 4 5 5 4 4 4 4 4 3 5 5 5 6 6 7 8 8 9 9 10 10 11 12 12 11 11
4 3 1 1 1 1 1 1 2 2 1 1 1 1 1 1 1 3 3 4 4 4 4 4 4 3 3 3 3 3 3 4 6 7 8 8 9 10 10 11 12 12 12
3 3 1 0 1 2 1 1 1 1 1 1 2 2 1 1 2 2 2 3 4 5 5 4 3 3 3 2 2 2 2 3 4 5 6 7 8 10 10 10 11 11 12
3 3 1 1 1 2 1 1 1 2 1 1 3 2 3 2 1 1 1 2 2 3 4 5 4 4 3 3 3 2 2 2 3 4 6 6 7 8 9 10 10 10 10
2 2 2 1 1 2 2 2 2 1 0 1 2 2 2 3 3 1 1 2 2 2 2 4 5 5 4 3 3 3 3 2 3 3 4 5 6 6 6 7 9 9 9
2 2 2 2 1 2 2 1 2 3 1 1 1 3 2 1 1 2 1 0 1 1 1 2 4 5 5 4 4 3 3 3 3 3 3 4 5 5 5 6 7 8 8
2 2 3 3 3 2 2 1 2 2 3 0 1 0 2 3 2 1 2 2 0 1 1 1 2 4 6 6 5 5 4 4 3 3 3 3 4 4 5 6 7 8 8
1 1 2 3 3 2 2 2 2 2 2 2 1 0 1 1 2 2 1 2 2 2 1 1 1 3 5 6 6 6 5 5 3 3 2 3 4 5 5 5 6 7 8
0 1 1 2 2 2 2 2 2 2 1 1 1 1 2 1 1 2 2 1 2 2 2 1 1 2 4 6 6 5 5 5 4 3 2 3 4 4 4 4 4 5 6
1 2 1 2 2 2 2 2 2 1 1 1 1 1 1 2 2 3 2 1 1 2 2 1 1 2 4 5 5 6 5 5 4 3 3 3 4 4 4 4 4 4 5
3 2 2 2 3 2 2 2 1 1 1 1 1 1 1 1 2 3 3 3 0 2 2 3 1 2 4 5 6 7 5 6 5 5 5 4 4 4 4 4 5 5 5
3 3 2 2 2 2 2 2 1 1 1 1 1 1 1 1 1 1 2 3 4 2 3 3 2 2 3 5 6 7 6 6 6 6 6 6 6 5 5 5 4 5 5
2 2 2 2 2 2 2 2 1 1 1 1 1 1 1 1 1 1 1 2 2 3 3 3 3 3 3 3 6 6 7 7 8 8 8 8 7 7 6 6 5 5 5
3 3 3 3 3 2 2 2 2 1 1 1 1 2 2 2 1 1 1 1 1 2 3 3 2 1 2 2 2 5 6 6 7 9 9 9 9 8 8 8 7 7 7
3 3 3 3 3 3 2 3 3 2 2 2 3 2 3 2 2 1 1 1 2 2 3 2 2 1 2 3 3 3 4 6 7 9 11 11 11 11 11 10 10 9 8
3 3 3 3 3 3 2 3 3 2 3 3 3 3 3 2 2 2 2 2 2 2 2 2 3 2 2 2 1 2 3 3 6 8 10 12 13 13 13 12 12 11 11
4 4 3 3 3 2 2 2 2 2 3 3 3 3 3 4 4 3 3 3 2 1 1 2 2 2 3 2 1 2 3 4 4 5 6 9 11 13 14 14 13 13 13
5 5 4 3 3 3 3 3 3 3 3 3 3 3 4 4 5 4 3 3 3 2 2 2 3 2 3 2 3 3 4 4 4 4 3 5 6 6 8 12 13 14 14
4 4 4 4 4 4 5 6 5 3 3 3 4 3 3 3 4 5 6 6 5 4 4 4 4 4 5 5 4 4 3 2 4 3 4 5 4 5 6 8 11 14 14
5 5 5 5 5 5 6 5 5 4 4 4 4 4 4 4 4 3 5 5 6 7 8 7 6 7 6 6 5 5 5 5 6 4 3 5 3 5 6 8 11 12 13
6 6 6 6 5 6 6 6 6 4 4 5 5 5 5 5 4 4 3 4 5 6 7 7 8 9 8 7 7 7 7 6 5 3 4 4 3 5 6 6 10 12 13
6 6 5 6 6 6 6 7 6 3 3 5 5 5 5 6 7 6 4 5 6 6 7 8 9 10 10 9 7 3 3 2 4 4 4 3 3 3 4 5 7 11 13
6 5 5 6 6 6 7 8 7 4 4 5 4 4 6 7 8 6 5 5 7 8 6 5 5 7 6 7 8 7 6 5 4 4 4 4 3 2 3 3 4 5 8
Wind_Direction
143 157 170 178 186 190 191 206 228 227 248 245 220 184 165 183 186 190 190 188 191 193 194 195 197 202 205 206 207 208 209 210 208 206 207 209 209 209 206 207 210 207 205
146 151 157 174 187 196 199 201 196 200 264 205 191 153 162 170 166 168 173 180 187 192 194 197 202 209 212 210 212 213 213 213 214 212 212 212 212 212 210 209 209 209 210
145 143 144 162 193 191 179 170 153 114 253 186 21 95 129 141 154 155 156 163 175 185 193 201 209 214 212 211 215 215 215 218 220 220 214 212 214 214 214 213 209 208 210
139 137 134 175 201 168 149 143 123 104 38 43 46 61 105 116 139 149 155 167 174 180 189 199 200 197 200 209 221 223 224 229 226 222 213 210 210 211 213 213 208 207 207
137 138 152 207 197 94 104 150 135 145 141 91 93 81 93 119 137 144 149 166 170 175 182 192 192 188 182 187 211 227 235 238 231 224 219 217 216 214 213 212 211 208 207
140 139 155 189 111 91 79 89 110 108 131 121 92 71 49 104 123 142 164 164 172 178 183 181 184 197 192 191 199 207 225 235 235 231 229 225 222 218 215 213 214 214 213
144 137 140 122 112 108 119 110 109 82 59 95 80 43 23 33 73 179 169 156 164 180 177 184 186 182 176 185 194 207 225 238 235 235 232 226 223 220 215 214 215 216 215
153 142 141 138 127 109 90 89 107 99 357 92 113 92 23 3 359 355 127 162 176 157 163 184 179 177 176 167 179 198 212 225 231 228 221 213 211 207 207 212 211 212 210
150 138 136 142 133 124 128 111 125 125 139 327 121 136 139 219 310 348 9 77 142 154 202 161 173 183 183 180 179 185 193 203 209 209 207 204 198 196 197 199 195 195 196
172 154 135 131 129 124 127 140 132 135 134 179 311 100 157 156 150 335 340 346 32 193 212 191 170 179 182 177 182 190 191 192 192 203 204 199 194 194 195 196 194 196 196
178 169 144 137 139 141 150 145 126 133 143 155 168 56 61 73 118 143 256 318 336 298 252 218 172 173 186 184 186 193 195 195 196 204 214 208 201 202 201 199 202 206 207
266 276 152 159 165 162 164 168 155 147 149 147 151 143 144 150 183 155 190 236 271 289 290 259 180 176 187 188 189 189 188 192 195 203 211 202 196 196 197 201 200 197 203
212 244 193 169 178 185 185 169 141 158 164 152 172 188 179 191 180 159 156 200 248 283 315 302 238 190 194 190 197 189 186 180 179 183 186 182 186 193 198 201 206 208 206
208 204 187 181 188 185 178 159 150 189 170 181 200 189 202 230 178 167 170 164 172 320 314 279 281 218 202 192 201 191 191 195 194 196 196 192 195 200 205 211 217 219 219
200 192 183 172 180 174 172 157 161 219 195 204 226 223 221 251 201 200 175 162 162 213 269 258 251 242 202 192 199 191 196 204 205 206 206 207 209 207 212 217 223 226 223
191 170 168 174 175 178 172 157 175 202 179 229 218 217 237 247 243 218 197 186 173 182 232 247 234 229 201 199 205 200 209 214 214 214 214 218 220 219 219 216 218 222 220
182 176 177 176 177 187 187 172 197 198 196 245 256 220 235 232 229 241 202 195 198 174 216 269 241 224 185 204 199 209 217 218 224 223 221 225 226 226 222 220 221 223 222
181 179 175 175 187 196 195 194 214 213 208 230 245 233 247 237 229 235 208 215 223 199 187 233 254 226 214 216 214 213 219 227 226 227 225 229 230 228 226 226 225 222 221
181 178 168 176 190 200 203 208 210 218 221 232 238 231 240 219 239 235 221 227 233 216 187 196 241 235 236 225 218 242 236 242 236 233 230 232 232 231 232 231 228 223 223
180 184 185 189 192 195 202 208 210 220 236 246 247 235 229 217 222 228 227 228 220 203 197 202 241 251 244 237 196 228 254 253 247 234 232 233 233 234 235 235 232 229 227
195 189 184 195 201 206 220 216 219 227 235 247 255 243 234 222 219 222 225 221 208 207 208 214 236 251 249 229 228 221 232 253 255 235 233 234 227 232 238 240 237 235 231
196 187 193 199 215 237 237 224 214 227 229 230 245 254 244 236 242 237 234 223 205 203 212 216 230 237 245 236 232 225 223 233 262 238 210 242 217 233 238 237 236 232 230
198 199 207 206 220 237 234 227 219 218 225 229 233 241 253 256 242 247 251 242 235 230 215 208 224 234 235 229 219 227 224 224 239 230 198 244 226 237 242 241 231 226 228
204 210 216 217 223 241 233 228 223 224 237 236 232 228 235 252 251 231 243 258 259 255 240 226 229 236 235 228 214 216 224 237 254 242 190 229 234 235 240 238 233 227 230
214 218 215 217 224 244 236 224 214 223 242 249 245 238 233 247 251 228 229 252 269 276 265 243 240 244 244 238 219 206 221 229 259 251 210 210 233 237 237 240 235 229 230
220 220 226 226 226 237 233 221 210 219 239 257 264 256 242 243 249 230 226 237 255 265 273 277 266 267 262 256 233 214 212 218 239 252 223 203 221 211 259 248 236 237 234
Height
1541 1542 1542 1543 1543 1544 1545 1545 1545 1545 1545 1544 1544 1543 1542 1541 1541 1542 1542 1543 1544 1544 1544 1544 1544 1544 1544 1544 1545 1545 1546 1546 1547 1547 1548 1549 1550 1550 1551 1552 1554 1555 1556
1542 1543 1543 1544 1544 1545 1545 1546 1546 1546 1545 1545 1544 1543 1543 1542 1542 1542 1543 1543 1544 1544 1544 1543 1543 1543 1542 1543 1543 1544 1544 1544 1545 1545 1546 1547 1547 1548 1549 1550 1551 1553 1554
1543 1544 1544 1545 1545 1546 1546 1546 1546 1546 1546 1545 1544 1544 1544 1543 1543 1543 1543 1543 1543 1543 1543 1543 1542 1541 1540 1541 1542 1542 1542 1543 1543 1543 1544 1545 1545 1546 1547 1548 1549 1550 1551
1544 1544 1545 1545 1546 1546 1546 1546 1546 1546 1545 1545 1545 1545 1544 1544 1544 1544 1543 1543 1543 1543 1543 1542 1541 1540 1540 1540 1540 1541 1541 1541 1541 1541 1541 1542 1543 1544 1544 1545 1546 1548 1549
1545 1545 1545 1545 1546 1546 1546 1546 1546 1546 1546 1545 1545 1545 1544 1544 1544 1544 1543 1543 1543 1543 1542 1542 1541 1540 1539 1539 1539 1539 1539 1539 1539 1539 1539 1540 1540 1541 1542 1543 1544 1545 1546
1545 1545 1546 1546 1546 1546 1547 1547 1546 1546 1546 1545 1545 1545 1544 1544 1544 1544 1543 1543 1543 1543 1542 1541 1541 1540 1540 1539 1539 1538 1538 1537 1537 1537 1537 1537 1538 1538 1539 1540 1541 1542 1543
1546 1546 1546 1546 1546 1546 1546 1546 1546 1546 1546 1546 1545 1545 1545 1545 1544 1544 1543 1543 1543 1542 1542 1541 1541 1540 1540 1539 1538 1538 1537 1536 1536 1535 1535 1535 1535 1536 1536 1537 1538 1539 1540
1546 1546 1547 1546 1546 1546 1546 1546 1546 1546 1546 1546 1545 1545 1545 1546 1545 1544 1544 1543 1543 1542 1541 1541 1540 1540 1539 1538 1538 1537 1536 1535 1534 1533 1533 1533 1533 1533 1534 1534 1535 1536 1537
1546 1547 1547 1546 1546 1546 1546 1546 1545 1545 1545 1546 1545 1545 1545 1544 1544 1545 1544 1543 1543 1542 1541 1541 1540 1539 1538 1538 1537 1536 1535 1534 1533 1532 1531 1531 1531 1532 1532 1532 1533 1534 1535
1546 1546 1546 1546 1546 1546 1545 1545 1545 1545 1545 1545 1545 1545 1545 1544 1544 1544 1544 1543 1542 1542 1541 1540 1540 1539 1538 1537 1536 1535 1534 1533 1532 1531 1530 1529 1529 1530 1530 1531 1531 1532 1533
1546 1546 1546 1546 1545 1545 1545 1545 1545 1544 1544 1544 1544 1544 1544 1544 1544 1543 1543 1543 1542 1541 1541 1540 1539 1538 1538 1537 1536 1535 1534 1533 1532 1531 1530 1529 1528 1528 1529 1529 1529 1530 1531
1545 1545 1545 1545 1545 1545 1544 1544 1544 1544 1544 1544 1544 1544 1543 1543 1543 1542 1542 1541 1541 1541 1540 1540 1539 1538 1537 1536 1536 1535 1533 1532 1531 1530 1529 1528 1528 1528 1528 1528 1528 1529 1529
1544 1544 1544 1544 1544 1544 1544 1544 1544 1543 1543 1543 1543 1543 1543 1543 1542 1542 1541 1541 1540 1540 1540 1539 1538 1538 1537 1536 1535 1534 1533 1532 1531 1530 1529 1528 1528 1528 1527 1527 1527 1527 1527
1543 1543 1544 1544 1543 1543 1543 1543 1543 1543 1543 1543 1543 1543 1542 1542 1542 1541 1541 1540 1539 1539 1538 1538 1537 1536 1536 1535 1534 1533 1532 1531 1530 1529 1528 1528 1527 1527 1526 1526 1526 1526 1526
1542 1542 1543 1543 1543 1543 1543 1543 1542 1542 1542 1542 1542 1542 1541 1541 1540 1540 1539 1539 1539 1537 1536 1536 1535 1535 1534 1534 1533 1532 1531 1530 1529 1528 1527 1527 1526 1525 1525 1524 1524 1524 1524
1541 1541 1541 1541 1542 1542 1541 1541 1541 1541 1541 1540 1540 1540 1540 1539 1539 1539 1538 1538 1537 1536 1535 1534 1534 1533 1532 1532 1531 1530 1529 1528 1527 1526 1526 1525 1524 1524 1523 1523 1522 1522 1522
1539 1540 1540 1540 1540 1540 1540 1540 1540 1540 1539 1539 1539 1539 1538 1538 1537 1537 1537 1536 1535 1535 1533 1532 1532 1531 1531 1530 1529 1528 1527 1526 1525 1524 1524 1523 1523 1522 1521 1521 1520 1520 1519
1538 1538 1538 1538 1538 1538 1538 1538 1538 1538 1538 1538 1537 1537 1536 1536 1536 1535 1535 1534 1533 1532 1532 1530 1530 1529 1528 1528 1527 1526 1525 1524 1523 1522 1522 1521 1520 1520 1519 1518 1518 1517 1517
1536 1536 1537 1537 1537 1537 1537 1537 1537 1537 1536 1536 1535 1535 1535 1534 1533 1533 1532 1531 1531 1530 1529 1528 1527 1527 1526 1525 1524 1523 1522 1521 1520 1520 1519 1518 1518 1517 1516 1515 1515 1515 1515
1533 1534 1535 1535 1535 1535 1534 1534 1535 1534 1534 1533 1533 1533 1532 1532 1531 1530 1530 1529 1528 1527 1527 1526 1525 1524 1523 1522 1521 1520 1519 1518 1517 1517 1516 1515 1515 1514 1513 1512 1512 1512 1511
1531 1532 1532 1532 1532 1532 1532 1532 1532 1532 1531 1531 1530 1530 1530 1529 1528 1528 1527 1526 1525 1524 1524 1523 1522 1521 1520 1519 1517 1517 1516 1515 1514 1513 1512 1512 1511 1510 1509 1509 1508 1508 1508
1528 1529 1529 1529 1530 1530 1530 1530 1530 1529 1529 1528 1527 1527 1527 1526 1525 1525 1524 1523 1523 1521 1520 1519 1518 1517 1516 1515 1514 1513 1512 1511 1510 1510 1508 1507 1507 1506 1505 1505 1504 1504 1504
1525 1525 1526 1526 1526 1527 1527 1527 1527 1527 1526 1525 1524 1524 1523 1522 1522 1521 1520 1519 1518 1517 1517 1516 1514 1513 1512 1511 1510 1509 1508 1507 1506 1506 1504 1502 1502 1501 1501 1500 1500 1500 1500
1521 1521 1522 1523 1523 1523 1524 1524 1524 1523 1522 1521 1521 1520 1519 1519 1518 1517 1516 1514 1513 1513 1512 1511 1510 1509 1508 1507 1506 1506 1504 1503 1502 1502 1500 1498 1497 1497 1496 1496 1496 1496 1495
1518 1518 1518 1519 1519 1519 1520 1520 1520 1519 1518 1517 1517 1516 1515 1514 1514 1513 1512 1510 1508 1507 1507 1506 1505 1504 1504 1503 1502 1501 1500 1498 1496 1496 1496 1494 1492 1492 1491 1491 1491 1491 1490
1514 1514 1515 1515 1515 1515 1516 1516 1516 1515 1514 1513 1512 1512 1511 1510 1509 1508 1507 1505 1503 1502 1502 1501 1500 1499 1498 1497 1497 1496 1494 1493 1492 1490 1490 1490 1488 1488 1486 1485 1486 1486 1485